Terminal Aerodrome Forecast
Issued by NWS

Home | Current Version | Previous Version | Text Only | Print | Product List | Glossary On
Versions: 1 2 3 4 5 6 7 8 9 10 11 12 13
000
FTUS42 TJSJ 011127
TAFNCM
TAF
TNCM 011127Z 0112/0212 10007KT P6SM VCSH SCT016 SCT030
     FM011230 10011KT P6SM VCTS SCT018CB BKN040 BKN120
     FM011800 12014KT P6SM VCSH SCT020 SCT030 SCT120
     FM012300 09008KT P6SM SCT025=

USA.gov is the U.S. government's official web portal to all federal, state and local government web resources and services.